Weather History for Preston, MN

Change the Weather History Date:

Tuesday, March 11, 2014

  Actual Average (KRST) Record (KRST)
Temperature  
Mean Temperature 36 °F 30 °F  
Max Temperature 41 °F 38 °F 63 °F (2012)
Min Temperature 32 °F 22 °F -29 °F (1948)
Degree Days  
Heating Degree Days 28 35  
Month to date heating degree days 409  
Since 1 July heating degree days 6270  
Cooling Degree Days 0 0  
Month to date cooling degree days 0  
Year to date cooling degree days 0  
Moisture  
Dew Point 30 °F    
Average Humidity 75    
Maximum Humidity 94    
Minimum Humidity 57    
Precipitation  
Precipitation 0.03 in 0.05 in 0.68 in (1962)
Month to date precipitation 0.54  
Year to date precipitation 2.23  
Snow  
Snow 0.00 in 0.40 in 5.60 in (1962)
Month to date snowfall 3.8  
Since 1 July snowfall 43.7  
Snow Depth -    
Sea Level Pressure  
Sea Level Pressure 29.79 in    
Wind  
Wind Speed 8 mph (NNW)    
Max Wind Speed 23 mph    
Max Gust Speed 32 mph    
Visibility 9 miles    
Events Rain    
T = Trace of Precipitation, MM = Missing Value Source: NWS Daily Summary

Daily Weather History Graph

Daily Weather History Graph

Search for Another Location

Airport:

Trip Planner

Search our weather history database for the weather conditions in past years. The results will help you decide how hot, cold, wet, or windy it might be!

Date:

Astronomy

Mar. 11, 2014 Rise Set
Actual Time 7:27 AM CDT 7:10 PM CDT
Civil Twilight 6:59 AM CDT 7:38 PM CDT
Nautical Twilight 6:26 AM CDT 8:11 PM CDT
Astronomical Twilight 5:52 AM CDT 8:45 PM CDT
Moon 2:40 PM CDT (3/11) 4:28 AM CDT (3/11)
Length of Visible Light 12h 39m
Length of Day
11h 42m
Waxing Gibbous, 78% of the Moon is Illuminated
Mar 11
Waxing Gibbous
Mar 16
Full
Mar 23
Last Quarter
Mar 30
New
Apr 7
First Quarter

Hourly Weather History & Observations

Time (CDT) Temp. Windchill Dew Point Humidity Pressure Visibility Wind Dir Wind Speed Gust Speed Precip Events Conditions
12:11 AM 39.2 °F 35.9 °F 32.9 °F 78% 29.69 in 10.0 mi NNW 4.6 mph - N/A   Scattered Clouds
12:31 AM 38.8 °F 34.6 °F 32.7 °F 79% 29.70 in 10.0 mi West 5.8 mph - N/A   Mostly Cloudy
12:51 AM 39.7 °F 35.6 °F 32.5 °F 75% 29.70 in 10.0 mi West 5.8 mph - N/A   Overcast
1:11 AM 41.0 °F 37.1 °F 32.2 °F 71% 29.69 in 10.0 mi WNW 5.8 mph - N/A   Overcast
1:31 AM 41.0 °F 37.1 °F 32.0 °F 70% 29.69 in 10.0 mi West 5.8 mph - N/A   Overcast
1:51 AM 41.4 °F 38.4 °F 32.0 °F 69% 29.69 in 10.0 mi NW 4.6 mph - N/A   Overcast
2:11 AM 40.1 °F 36.9 °F 32.0 °F 73% 29.69 in 10.0 mi NNW 4.6 mph - N/A   Overcast
2:30 AM 40.1 °F 36.1 °F 32.0 °F 73% 29.71 in 10.0 mi NW 5.8 mph - N/A   Overcast
2:51 AM 40.6 °F 36.7 °F 32.0 °F 71% 29.71 in 10.0 mi NW 5.8 mph - N/A   Overcast
3:11 AM 40.8 °F 37.8 °F 32.0 °F 71% 29.70 in 10.0 mi NNW 4.6 mph - N/A   Overcast
3:31 AM 40.3 °F 36.3 °F 32.0 °F 72% 29.70 in 10.0 mi NW 5.8 mph - N/A   Overcast
3:51 AM 40.1 °F 36.9 °F 32.0 °F 73% 29.71 in 10.0 mi NW 4.6 mph - N/A   Overcast
4:10 AM 39.2 °F 34.2 °F 32.0 °F 75% 29.71 in 10.0 mi NW 6.9 mph - N/A   Overcast
4:31 AM 39.2 °F 37.0 °F 32.0 °F 75% 29.70 in 10.0 mi NNW 3.5 mph - N/A   Overcast
4:51 AM 40.3 °F 37.1 °F 31.6 °F 71% 29.70 in 10.0 mi NNW 4.6 mph - N/A   Overcast
5:11 AM 40.1 °F 36.9 °F 31.3 °F 71% 29.70 in 10.0 mi North 4.6 mph - N/A   Overcast
5:31 AM 40.1 °F 36.9 °F 31.1 °F 70% 29.69 in 10.0 mi North 4.6 mph - N/A   Overcast
5:50 AM 40.3 °F 36.3 °F 31.1 °F 70% 29.70 in 10.0 mi North 5.8 mph - N/A   Overcast
6:11 AM 39.7 °F 33.7 °F 31.1 °F 71% 29.69 in 10.0 mi North 9.2 mph - N/A   Overcast
6:31 AM 39.6 °F 35.4 °F 31.1 °F 72% 29.69 in 10.0 mi North 5.8 mph - N/A   Overcast
6:50 AM 39.2 °F 34.2 °F 31.3 °F 73% 29.69 in 10.0 mi NNE 6.9 mph - N/A   Overcast
7:11 AM 38.7 °F 32.4 °F 31.3 °F 75% 29.69 in 10.0 mi North 9.2 mph - N/A   Overcast
7:31 AM 38.7 °F 32.4 °F 31.1 °F 74% 29.69 in 10.0 mi North 9.2 mph 16.1 mph N/A   Overcast
7:51 AM 38.7 °F 30.9 °F 31.5 °F 75% 29.69 in 10.0 mi NNE 12.7 mph - N/A   Overcast
8:11 AM 38.3 °F 31.4 °F 32.0 °F 78% 29.72 in 10.0 mi North 10.4 mph - N/A   Overcast
8:30 AM 38.3 °F 31.9 °F 32.0 °F 78% 29.74 in 10.0 mi North 9.2 mph 17.3 mph N/A   Overcast
8:51 AM 37.6 °F 30.5 °F 33.3 °F 84% 29.75 in 10.0 mi North 10.4 mph - N/A Rain Light Rain
9:11 AM 37.0 °F 28.9 °F 34.0 °F 89% 29.76 in 10.0 mi North 12.7 mph - N/A Rain Light Rain
9:31 AM 36.7 °F 28.4 °F 34.3 °F 91% 29.76 in 7.0 mi NNE 12.7 mph - N/A   Light Drizzle
9:51 AM 36.1 °F 28.7 °F 34.0 °F 92% 29.77 in 7.0 mi North 10.4 mph - N/A Rain Light Rain
10:11 AM 35.6 °F 27.1 °F 33.8 °F 93% 29.77 in 7.0 mi North 12.7 mph 17.3 mph N/A   Light Drizzle
10:30 AM 35.2 °F 27.6 °F 33.4 °F 93% 29.78 in 10.0 mi NNE 10.4 mph - N/A Rain Light Rain
10:51 AM 35.6 °F 28.0 °F 33.8 °F 93% 29.79 in 7.0 mi North 10.4 mph - N/A   Light Drizzle
11:10 AM 35.6 °F 28.0 °F 33.8 °F 93% 29.80 in 7.0 mi North 10.4 mph - N/A   Light Drizzle
11:31 AM 35.6 °F 27.1 °F 34.0 °F 94% 29.81 in 7.0 mi North 12.7 mph - 0.01 in Rain Light Rain
11:51 AM 35.2 °F 27.1 °F 33.8 °F 94% 29.81 in 7.0 mi North 11.5 mph - 0.01 in Rain Light Rain
12:11 PM 34.9 °F 26.2 °F 33.3 °F 94% 29.82 in 7.0 mi North 12.7 mph - N/A Rain Light Rain
12:31 PM 34.7 °F 25.9 °F 33.1 °F 94% 29.82 in 10.0 mi North 12.7 mph - N/A   Light Drizzle
12:51 PM 34.7 °F 28.1 °F 33.1 °F 94% 29.83 in 7.0 mi North 8.1 mph - 0.01 in   Light Drizzle
1:11 PM 34.9 °F 27.7 °F 32.9 °F 92% 29.84 in 7.0 mi North 9.2 mph - N/A Rain Light Rain
1:31 PM 35.2 °F 27.1 °F 32.9 °F 91% 29.84 in 5.0 mi North 11.5 mph 17.3 mph N/A Rain Light Rain
1:50 PM 34.7 °F 28.1 °F 32.5 °F 92% 29.83 in 4.0 mi North 8.1 mph - 0.01 in Rain Light Rain
2:11 PM 35.1 °F 27.9 °F 32.7 °F 91% 29.82 in 5.0 mi North 9.2 mph - N/A Rain Light Rain
2:31 PM 35.6 °F 31.7 °F 32.4 °F 88% 29.82 in 10.0 mi North 4.6 mph - N/A Rain Light Rain
2:51 PM 36.5 °F - 32.4 °F 85% 29.81 in 10.0 mi Calm Calm - N/A   Overcast
3:11 PM 36.7 °F 31.2 °F 32.0 °F 83% 29.81 in 10.0 mi North 6.9 mph - N/A   Overcast
3:31 PM 37.2 °F 31.9 °F 31.5 °F 80% 29.81 in 10.0 mi North 6.9 mph - N/A   Overcast
3:51 PM 37.4 °F 29.8 °F 30.7 °F 77% 29.80 in 10.0 mi North 11.5 mph - N/A   Overcast
4:11 PM 37.6 °F 31.0 °F 29.5 °F 73% 29.80 in 10.0 mi North 9.2 mph - N/A   Overcast
4:30 PM 37.8 °F 30.7 °F 28.6 °F 69% 29.80 in 10.0 mi North 10.4 mph - N/A   Overcast
4:51 PM 37.8 °F 29.8 °F 27.0 °F 65% 29.80 in 10.0 mi North 12.7 mph - N/A   Overcast
5:11 PM 37.8 °F 29.8 °F 26.2 °F 63% 29.82 in 10.0 mi North 12.7 mph - N/A   Overcast
5:31 PM 38.3 °F 30.1 °F 25.3 °F 60% 29.82 in 10.0 mi North 13.8 mph 19.6 mph N/A   Overcast
5:51 PM 38.1 °F 30.7 °F 25.2 °F 60% 29.83 in 10.0 mi NNW 11.5 mph - N/A   Overcast
6:11 PM 37.9 °F 30.5 °F 25.5 °F 61% 29.84 in 10.0 mi NNW 11.5 mph - N/A   Overcast
6:31 PM 38.1 °F 30.7 °F 25.0 °F 59% 29.86 in 10.0 mi NNW 11.5 mph 17.3 mph N/A   Overcast
6:51 PM 37.4 °F 30.8 °F 26.1 °F 64% 29.87 in 10.0 mi NW 9.2 mph - N/A   Overcast
7:11 PM 36.9 °F 29.6 °F 26.1 °F 65% 29.88 in 10.0 mi NW 10.4 mph - N/A   Overcast
7:31 PM 36.9 °F 29.6 °F 25.9 °F 64% 29.89 in 10.0 mi NW 10.4 mph - N/A   Overcast
7:51 PM 37.4 °F 29.8 °F 24.4 °F 60% 29.89 in 10.0 mi NNW 11.5 mph - N/A   Mostly Cloudy
8:11 PM 37.4 °F 30.8 °F 23.5 °F 57% 29.89 in 10.0 mi NNW 9.2 mph - N/A   Overcast
8:31 PM 36.7 °F 29.9 °F 23.9 °F 60% 29.89 in 10.0 mi NNW 9.2 mph - N/A   Mostly Cloudy
8:50 PM 36.9 °F 27.8 °F 23.5 °F 59% 29.89 in 10.0 mi NNW 15.0 mph - N/A   Mostly Cloudy
9:11 PM 36.7 °F 28.4 °F 24.1 °F 60% 29.89 in 10.0 mi NNW 12.7 mph 19.6 mph N/A   Overcast
9:31 PM 36.3 °F 27.5 °F 24.4 °F 62% 29.89 in 10.0 mi NNW 13.8 mph 17.3 mph N/A   Mostly Cloudy
9:50 PM 36.0 °F 26.0 °F 24.6 °F 63% 29.88 in 10.0 mi NNW 17.3 mph 20.7 mph N/A   Scattered Clouds
10:11 PM 35.6 °F 25.9 °F 24.4 °F 64% 29.88 in 10.0 mi North 16.1 mph 20.7 mph N/A   Clear
10:31 PM 34.9 °F 23.9 °F 24.6 °F 66% 29.89 in 10.0 mi North 19.6 mph 27.6 mph N/A   Clear
10:51 PM 34.2 °F 23.0 °F 23.2 °F 64% 29.89 in 10.0 mi North 19.6 mph 32.2 mph N/A   Clear
11:11 PM 33.8 °F 21.6 °F 22.8 °F 64% 29.89 in 10.0 mi North 23.0 mph 28.8 mph N/A   Clear
11:31 PM 32.9 °F 21.3 °F 21.9 °F 64% 29.89 in 10.0 mi North 19.6 mph 27.6 mph N/A   Clear
11:51 PM 32.2 °F 21.1 °F 21.4 °F 64% 29.89 in 10.0 mi North 17.3 mph 26.5 mph N/A   Clear